Year,Month,Day,Hour,Minute,Value (Times are PST for windspeed in km/hr)
2019,06,15,00,00,9.00
2019,06,15,00,01,7.50
2019,06,15,00,02,8.10
2019,06,15,00,03,7.20
2019,06,15,00,04,6.50
2019,06,15,00,05,10.20
2019,06,15,00,06,3.10
2019,06,15,00,07,9.80
2019,06,15,00,08,5.30
2019,06,15,00,09,6.60
2019,06,15,00,10,5.30
2019,06,15,00,11,8.20
2019,06,15,00,12,6.70
2019,06,15,00,13,5.30
2019,06,15,00,14,6.10
2019,06,15,00,15,7.70
2019,06,15,00,16,7.00
2019,06,15,00,17,5.20
2019,06,15,00,18,8.50
2019,06,15,00,19,11.70
2019,06,15,00,20,6.20
2019,06,15,00,21,9.10
2019,06,15,00,22,9.70
2019,06,15,00,23,8.40
2019,06,15,00,24,5.30
2019,06,15,00,25,11.70
2019,06,15,00,26,6.80
2019,06,15,00,27,5.40
2019,06,15,00,28,3.20
2019,06,15,00,29,10.60
2019,06,15,00,30,8.30
2019,06,15,00,31,13.20
2019,06,15,00,32,9.70
2019,06,15,00,33,9.90
2019,06,15,00,34,11.70
2019,06,15,00,35,8.10
2019,06,15,00,36,4.80
2019,06,15,00,37,8.90
2019,06,15,00,38,7.10
2019,06,15,00,39,9.40
2019,06,15,00,40,7.90
2019,06,15,00,41,5.30
2019,06,15,00,42,6.10
2019,06,15,00,43,9.10
2019,06,15,00,44,9.10
2019,06,15,00,45,5.60
2019,06,15,00,46,6.40
2019,06,15,00,47,5.50
2019,06,15,00,48,5.60
2019,06,15,00,49,10.30
2019,06,15,00,50,6.10
2019,06,15,00,51,9.40
2019,06,15,00,52,10.00
2019,06,15,00,53,7.90
2019,06,15,00,54,10.20
2019,06,15,00,55,13.80
2019,06,15,00,56,6.90
2019,06,15,00,57,6.40
2019,06,15,00,58,8.90
2019,06,15,00,59,9.70
2019,06,15,01,00,10.80
2019,06,15,01,01,10.20
2019,06,15,01,02,7.40
2019,06,15,01,03,8.40
2019,06,15,01,04,9.60
2019,06,15,01,05,7.60
2019,06,15,01,06,6.40
2019,06,15,01,07,11.10
2019,06,15,01,08,12.80
2019,06,15,01,09,8.30
2019,06,15,01,10,9.00
2019,06,15,01,11,8.00
2019,06,15,01,12,6.10
2019,06,15,01,13,11.60
2019,06,15,01,14,7.40
2019,06,15,01,15,8.40
2019,06,15,01,16,7.10
2019,06,15,01,17,7.40
2019,06,15,01,18,8.00
2019,06,15,01,19,6.70
2019,06,15,01,20,7.40
2019,06,15,01,21,6.60
2019,06,15,01,22,7.30
2019,06,15,01,23,3.40
2019,06,15,01,24,6.50
2019,06,15,01,25,7.20
2019,06,15,01,26,3.50
2019,06,15,01,27,7.20
2019,06,15,01,28,6.70
2019,06,15,01,29,6.00
2019,06,15,01,30,6.40
2019,06,15,01,31,3.60
2019,06,15,01,32,4.00
2019,06,15,01,33,1.70
2019,06,15,01,34,4.80
2019,06,15,01,35,5.10
2019,06,15,01,36,5.10
2019,06,15,01,37,3.40
2019,06,15,01,38,4.70
2019,06,15,01,39,4.50
2019,06,15,01,40,4.10
2019,06,15,01,41,5.40
2019,06,15,01,42,6.80
2019,06,15,01,43,5.70
2019,06,15,01,44,3.60
2019,06,15,01,45,4.90
2019,06,15,01,46,3.90
2019,06,15,01,47,6.10
2019,06,15,01,48,4.10
2019,06,15,01,49,3.40
2019,06,15,01,50,3.60
2019,06,15,01,51,3.70
2019,06,15,01,52,4.10
2019,06,15,01,53,5.30
2019,06,15,01,54,4.50
2019,06,15,01,55,5.60
2019,06,15,01,56,4.60
2019,06,15,01,57,2.70
2019,06,15,01,58,2.50
2019,06,15,01,59,2.80
2019,06,15,02,00,2.20
2019,06,15,02,01,2.90
2019,06,15,02,02,3.10
2019,06,15,02,03,4.20
2019,06,15,02,04,1.50
2019,06,15,02,05,2.60
2019,06,15,02,06,2.80
2019,06,15,02,07,2.90
2019,06,15,02,08,2.20
2019,06,15,02,09,1.00
2019,06,15,02,10,1.20
2019,06,15,02,11,3.50
2019,06,15,02,12,1.70
2019,06,15,02,13,2.20
2019,06,15,02,14,2.70
2019,06,15,02,15,5.40
2019,06,15,02,16,3.90
2019,06,15,02,17,2.60
2019,06,15,02,18,1.40
2019,06,15,02,19,3.90
2019,06,15,02,20,0.70
2019,06,15,02,21,2.10
2019,06,15,02,22,3.60
2019,06,15,02,23,3.40
2019,06,15,02,24,3.10
2019,06,15,02,25,5.50
2019,06,15,02,26,3.20
2019,06,15,02,27,3.60
2019,06,15,02,28,4.40
2019,06,15,02,29,3.50
2019,06,15,02,30,5.00
2019,06,15,02,31,5.80
2019,06,15,02,32,3.00
2019,06,15,02,33,4.80
2019,06,15,02,34,3.10
2019,06,15,02,35,1.80
2019,06,15,02,36,2.90
2019,06,15,02,37,4.30
2019,06,15,02,38,3.20
2019,06,15,02,39,3.50
2019,06,15,02,40,5.30
2019,06,15,02,41,6.30
2019,06,15,02,42,3.00
2019,06,15,02,43,3.40
2019,06,15,02,44,2.80
2019,06,15,02,45,2.70
2019,06,15,02,46,7.10
2019,06,15,02,47,4.20
2019,06,15,02,48,3.30
2019,06,15,02,49,8.10
2019,06,15,02,50,3.70
2019,06,15,02,51,1.90
2019,06,15,02,52,3.60
2019,06,15,02,53,5.00
2019,06,15,02,54,3.80
2019,06,15,02,55,3.90
2019,06,15,02,56,2.10
2019,06,15,02,57,2.40
2019,06,15,02,58,6.00
2019,06,15,02,59,3.20
2019,06,15,03,00,3.20
2019,06,15,03,01,4.00
2019,06,15,03,02,2.30
2019,06,15,03,03,3.30
2019,06,15,03,04,3.10
2019,06,15,03,05,4.40
2019,06,15,03,06,4.80
2019,06,15,03,07,3.90
2019,06,15,03,08,5.70
2019,06,15,03,09,6.70
2019,06,15,03,10,5.40
2019,06,15,03,11,3.60
2019,06,15,03,12,5.30
2019,06,15,03,13,3.20
2019,06,15,03,14,5.00
2019,06,15,03,15,5.90
2019,06,15,03,16,3.80
2019,06,15,03,17,3.40
2019,06,15,03,18,4.00
2019,06,15,03,19,4.60
2019,06,15,03,20,4.60
2019,06,15,03,21,2.30
2019,06,15,03,22,1.40
2019,06,15,03,23,0.60
2019,06,15,03,24,1.30
2019,06,15,03,25,1.30
2019,06,15,03,26,0.70
2019,06,15,03,27,3.30
2019,06,15,03,28,2.30
2019,06,15,03,29,3.00
2019,06,15,03,30,1.90
2019,06,15,03,31,1.60
2019,06,15,03,32,1.70
2019,06,15,03,33,0.50
2019,06,15,03,34,0.70
2019,06,15,03,35,0.70
2019,06,15,03,36,2.20
2019,06,15,03,37,3.00
2019,06,15,03,38,1.50
2019,06,15,03,39,2.60
2019,06,15,03,40,2.30
2019,06,15,03,41,2.90
2019,06,15,03,42,1.40
2019,06,15,03,43,1.70
2019,06,15,03,44,3.70
2019,06,15,03,45,2.50
2019,06,15,03,46,2.50
2019,06,15,03,47,0.70
2019,06,15,03,48,3.30
2019,06,15,03,49,3.10
2019,06,15,03,50,1.80
2019,06,15,03,51,3.90
2019,06,15,03,52,3.80
2019,06,15,03,53,2.50
2019,06,15,03,54,3.70
2019,06,15,03,55,3.50
2019,06,15,03,56,1.80
2019,06,15,03,57,3.40
2019,06,15,03,58,1.50
2019,06,15,03,59,2.30
2019,06,15,04,00,1.80
2019,06,15,04,01,2.40
2019,06,15,04,02,1.10
2019,06,15,04,03,2.70
2019,06,15,04,04,3.40
2019,06,15,04,05,1.60
2019,06,15,04,06,2.60
2019,06,15,04,07,2.00
2019,06,15,04,08,2.00
2019,06,15,04,09,2.30
2019,06,15,04,10,2.20
2019,06,15,04,11,3.30
2019,06,15,04,12,1.50
2019,06,15,04,13,2.80
2019,06,15,04,14,2.50
2019,06,15,04,15,2.90
2019,06,15,04,16,3.40
2019,06,15,04,17,4.30
2019,06,15,04,18,1.10
2019,06,15,04,19,2.00
2019,06,15,04,20,1.00
2019,06,15,04,21,3.10
2019,06,15,04,22,2.80
2019,06,15,04,23,2.70
2019,06,15,04,24,4.50
2019,06,15,04,25,3.30
2019,06,15,04,26,3.70
2019,06,15,04,27,2.60
2019,06,15,04,28,3.60
2019,06,15,04,29,1.40
2019,06,15,04,30,2.70
2019,06,15,04,31,2.90
2019,06,15,04,32,3.20
2019,06,15,04,33,0.90
2019,06,15,04,34,3.10
2019,06,15,04,35,1.60
2019,06,15,04,36,1.80
2019,06,15,04,37,3.10
2019,06,15,04,38,2.30
2019,06,15,04,39,3.10
2019,06,15,04,40,1.50
2019,06,15,04,41,1.50
2019,06,15,04,42,3.40
2019,06,15,04,43,1.70
2019,06,15,04,44,3.70
2019,06,15,04,45,0.80
2019,06,15,04,46,2.50
2019,06,15,04,47,0.20
2019,06,15,04,48,1.50
2019,06,15,04,49,0.00
2019,06,15,04,50,2.30
2019,06,15,04,51,2.60
2019,06,15,04,52,2.80
2019,06,15,04,53,1.80
2019,06,15,04,54,2.10
2019,06,15,04,55,2.80
2019,06,15,04,56,1.60
2019,06,15,04,57,2.70
2019,06,15,04,58,1.30
2019,06,15,04,59,1.00
2019,06,15,05,00,1.50
2019,06,15,05,01,0.40
2019,06,15,05,02,0.20
2019,06,15,05,03,1.40
2019,06,15,05,04,1.00
2019,06,15,05,05,0.10
2019,06,15,05,06,0.00
2019,06,15,05,07,0.00
2019,06,15,05,08,0.40
2019,06,15,05,09,2.00
2019,06,15,05,10,0.50
2019,06,15,05,11,2.30
2019,06,15,05,12,2.20
2019,06,15,05,13,0.90
2019,06,15,05,14,2.00
2019,06,15,05,15,0.50
2019,06,15,05,16,1.80
2019,06,15,05,17,1.60
2019,06,15,05,18,1.50
2019,06,15,05,19,2.30
2019,06,15,05,20,0.00
2019,06,15,05,21,0.00
2019,06,15,05,22,0.00
2019,06,15,05,23,0.70
2019,06,15,05,24,2.20
2019,06,15,05,25,0.00
2019,06,15,05,26,0.00
2019,06,15,05,27,2.50
2019,06,15,05,28,2.80
2019,06,15,05,29,1.20
2019,06,15,05,30,2.40
2019,06,15,05,31,2.90
2019,06,15,05,32,0.80
2019,06,15,05,33,1.30
2019,06,15,05,34,1.30
2019,06,15,05,35,2.10
2019,06,15,05,36,1.20
2019,06,15,05,37,0.40
2019,06,15,05,38,0.80
2019,06,15,05,39,1.10
2019,06,15,05,40,1.70
2019,06,15,05,41,0.80
2019,06,15,05,42,0.00
2019,06,15,05,43,0.70
2019,06,15,05,44,0.00
2019,06,15,05,45,1.20
2019,06,15,05,46,1.80
2019,06,15,05,47,1.00
2019,06,15,05,48,0.50
2019,06,15,05,49,0.00
2019,06,15,05,50,0.40
2019,06,15,05,51,0.20
2019,06,15,05,52,0.00
2019,06,15,05,53,0.00
2019,06,15,05,54,0.00
2019,06,15,05,55,0.40
2019,06,15,05,56,0.10
2019,06,15,05,57,0.00
2019,06,15,05,58,0.00
2019,06,15,05,59,0.00
2019,06,15,06,00,0.00
2019,06,15,06,01,0.00
2019,06,15,06,02,0.00
2019,06,15,06,03,0.00
2019,06,15,06,04,0.00
2019,06,15,06,05,0.00
2019,06,15,06,06,0.00
2019,06,15,06,07,0.00
2019,06,15,06,08,0.00
2019,06,15,06,09,0.00
2019,06,15,06,10,0.00
2019,06,15,06,11,0.00
2019,06,15,06,12,0.00
2019,06,15,06,13,0.00
2019,06,15,06,14,0.00
2019,06,15,06,15,0.00
2019,06,15,06,16,0.00
2019,06,15,06,17,0.00
2019,06,15,06,18,0.00
2019,06,15,06,19,0.00
2019,06,15,06,20,0.00
2019,06,15,06,21,0.00
2019,06,15,06,22,0.00
2019,06,15,06,23,0.00
2019,06,15,06,24,0.00
2019,06,15,06,25,0.00
2019,06,15,06,26,0.00
2019,06,15,06,27,0.00
2019,06,15,06,28,0.00
2019,06,15,06,29,0.00
2019,06,15,06,30,0.00
2019,06,15,06,31,0.00
2019,06,15,06,32,0.00
2019,06,15,06,33,0.00
2019,06,15,06,34,0.00
2019,06,15,06,35,0.00
2019,06,15,06,36,0.00
2019,06,15,06,37,0.00
2019,06,15,06,38,0.00
2019,06,15,06,39,0.00
2019,06,15,06,40,0.00
2019,06,15,06,41,0.00
2019,06,15,06,42,0.00
2019,06,15,06,43,0.40
2019,06,15,06,44,2.80
2019,06,15,06,45,2.70
2019,06,15,06,46,1.80
2019,06,15,06,47,1.80
2019,06,15,06,48,2.60
2019,06,15,06,49,3.20
2019,06,15,06,50,2.40
2019,06,15,06,51,1.20
2019,06,15,06,52,1.00
2019,06,15,06,53,2.70
2019,06,15,06,54,2.40
2019,06,15,06,55,3.10
2019,06,15,06,56,2.80
2019,06,15,06,57,2.60
2019,06,15,06,58,1.00
2019,06,15,06,59,1.10
2019,06,15,07,00,1.90
2019,06,15,07,01,2.10
2019,06,15,07,02,2.20
2019,06,15,07,03,0.70
2019,06,15,07,04,0.40
2019,06,15,07,05,0.90
2019,06,15,07,06,1.10
2019,06,15,07,07,0.40
2019,06,15,07,08,0.50
2019,06,15,07,09,0.10
2019,06,15,07,10,0.20
2019,06,15,07,11,0.30
2019,06,15,07,12,0.10
2019,06,15,07,13,0.00
2019,06,15,07,14,1.90
2019,06,15,07,15,1.50
2019,06,15,07,16,1.00
2019,06,15,07,17,1.50
2019,06,15,07,18,1.60
2019,06,15,07,19,2.00
2019,06,15,07,20,3.10
2019,06,15,07,21,3.30
2019,06,15,07,22,3.80
2019,06,15,07,23,3.70
2019,06,15,07,24,3.10
2019,06,15,07,25,3.60
2019,06,15,07,26,4.10
2019,06,15,07,27,3.70
2019,06,15,07,28,6.00
2019,06,15,07,29,4.80
2019,06,15,07,30,9.40
2019,06,15,07,31,8.80
2019,06,15,07,32,8.20
2019,06,15,07,33,8.10
2019,06,15,07,34,7.90
2019,06,15,07,35,6.80
2019,06,15,07,36,7.60
2019,06,15,07,37,6.90
2019,06,15,07,38,8.70
2019,06,15,07,39,8.00
2019,06,15,07,40,7.70
2019,06,15,07,41,6.10
2019,06,15,07,42,7.40
2019,06,15,07,43,6.30
2019,06,15,07,44,5.00
2019,06,15,07,45,3.50
2019,06,15,07,46,4.00
2019,06,15,07,47,3.40
2019,06,15,07,48,3.80
2019,06,15,07,49,2.60
2019,06,15,07,50,4.50
2019,06,15,07,51,4.70
2019,06,15,07,52,5.20
2019,06,15,07,53,4.60
2019,06,15,07,54,6.30
2019,06,15,07,55,4.80
2019,06,15,07,56,4.90
2019,06,15,07,57,7.80
2019,06,15,07,58,7.40
2019,06,15,07,59,4.50
2019,06,15,08,00,3.70
2019,06,15,08,01,2.90
2019,06,15,08,02,2.70
2019,06,15,08,03,3.70
2019,06,15,08,04,5.10
2019,06,15,08,05,5.60
2019,06,15,08,06,5.40
2019,06,15,08,07,6.60
2019,06,15,08,08,5.40
2019,06,15,08,09,3.40
2019,06,15,08,10,4.30
2019,06,15,08,11,3.40
2019,06,15,08,12,3.30
2019,06,15,08,13,1.30
2019,06,15,08,14,1.50
2019,06,15,08,15,1.30
2019,06,15,08,16,4.80
2019,06,15,08,17,5.30
2019,06,15,08,18,2.00
2019,06,15,08,19,4.60
2019,06,15,08,20,3.40
2019,06,15,08,21,4.80
2019,06,15,08,22,5.80
2019,06,15,08,23,3.90
2019,06,15,08,24,6.70
2019,06,15,08,25,6.90
2019,06,15,08,26,7.20
2019,06,15,08,27,6.60
2019,06,15,08,28,6.30
2019,06,15,08,29,4.90
2019,06,15,08,30,6.20
2019,06,15,08,31,4.40
2019,06,15,08,32,5.90
2019,06,15,08,33,4.00
2019,06,15,08,34,5.20
2019,06,15,08,35,6.20
2019,06,15,08,36,5.40
2019,06,15,08,37,4.80
2019,06,15,08,38,4.80
2019,06,15,08,39,7.30
2019,06,15,08,40,5.10
2019,06,15,08,41,4.90
2019,06,15,08,42,3.90
2019,06,15,08,43,5.00
2019,06,15,08,44,5.00
2019,06,15,08,45,5.90
2019,06,15,08,46,6.10
2019,06,15,08,47,8.90
2019,06,15,08,48,7.90
2019,06,15,08,49,5.60
2019,06,15,08,50,6.70
2019,06,15,08,51,6.40
2019,06,15,08,52,6.10
2019,06,15,08,53,4.20
2019,06,15,08,54,5.60
2019,06,15,08,55,3.80
2019,06,15,08,56,8.10
2019,06,15,08,57,7.00
2019,06,15,08,58,8.90
2019,06,15,08,59,8.10
2019,06,15,09,00,4.90
2019,06,15,09,01,7.40
2019,06,15,09,02,3.90
2019,06,15,09,03,4.50
2019,06,15,09,04,8.00
2019,06,15,09,05,8.90
2019,06,15,09,06,7.00
2019,06,15,09,07,6.80
2019,06,15,09,08,5.60
2019,06,15,09,09,8.90
2019,06,15,09,10,7.60
2019,06,15,09,11,6.60
2019,06,15,09,12,5.10
2019,06,15,09,13,5.30
2019,06,15,09,14,7.30
2019,06,15,09,15,8.10
2019,06,15,09,16,6.70
2019,06,15,09,17,5.30
2019,06,15,09,18,5.50
2019,06,15,09,19,5.20
2019,06,15,09,20,6.70
2019,06,15,09,21,6.20
2019,06,15,09,22,3.40
2019,06,15,09,23,7.10
2019,06,15,09,24,5.80
2019,06,15,09,25,3.60
2019,06,15,09,26,8.40
2019,06,15,09,27,8.20
2019,06,15,09,28,9.20
2019,06,15,09,29,7.70
2019,06,15,09,30,5.00
2019,06,15,09,31,8.00
2019,06,15,09,32,11.60
2019,06,15,09,33,8.90
2019,06,15,09,34,6.70
2019,06,15,09,35,10.20
2019,06,15,09,36,9.70
2019,06,15,09,37,9.60
2019,06,15,09,38,6.10
2019,06,15,09,39,7.90
2019,06,15,09,40,7.30
2019,06,15,09,41,7.80
2019,06,15,09,42,5.10
2019,06,15,09,43,8.90
2019,06,15,09,44,6.80
2019,06,15,09,45,6.50
2019,06,15,09,46,4.90
2019,06,15,09,47,6.30
2019,06,15,09,48,4.40
2019,06,15,09,49,3.90
2019,06,15,09,50,4.20
2019,06,15,09,51,5.70
2019,06,15,09,52,5.20
2019,06,15,09,53,4.10
2019,06,15,09,54,7.00
2019,06,15,09,55,10.20
2019,06,15,09,56,12.60
2019,06,15,09,57,14.60
2019,06,15,09,58,9.60
2019,06,15,09,59,10.80
2019,06,15,10,00,12.80
2019,06,15,10,01,8.30
2019,06,15,10,02,9.70
2019,06,15,10,03,14.60
2019,06,15,10,04,12.70
2019,06,15,10,05,7.80
2019,06,15,10,06,9.40
2019,06,15,10,07,7.80
2019,06,15,10,08,8.30
2019,06,15,10,09,15.10
2019,06,15,10,10,16.50
2019,06,15,10,11,15.40
2019,06,15,10,12,12.40
2019,06,15,10,13,9.90
2019,06,15,10,14,11.60
2019,06,15,10,15,11.40
2019,06,15,10,16,6.40
2019,06,15,10,17,6.00
2019,06,15,10,18,8.60
2019,06,15,10,19,6.90
2019,06,15,10,20,8.00
2019,06,15,10,21,7.00
2019,06,15,10,22,7.50
2019,06,15,10,23,9.50
2019,06,15,10,24,8.60
2019,06,15,10,25,7.20
2019,06,15,10,26,10.40
2019,06,15,10,27,9.00
2019,06,15,10,28,12.40
2019,06,15,10,29,6.20
2019,06,15,10,30,7.40
2019,06,15,10,31,5.90
2019,06,15,10,32,7.80
2019,06,15,10,33,5.90
2019,06,15,10,34,5.40
2019,06,15,10,35,9.10
2019,06,15,10,36,9.30
2019,06,15,10,37,4.60
2019,06,15,10,38,11.40
2019,06,15,10,39,9.00
2019,06,15,10,40,4.90
2019,06,15,10,41,6.20
2019,06,15,10,42,7.20
2019,06,15,10,43,4.70
2019,06,15,10,44,7.70
2019,06,15,10,45,6.70
2019,06,15,10,46,7.20
2019,06,15,10,47,7.10
2019,06,15,10,48,4.30
2019,06,15,10,49,5.30
2019,06,15,10,50,7.50
2019,06,15,10,51,11.20
2019,06,15,10,52,12.70
2019,06,15,10,53,7.80
2019,06,15,10,54,15.00
2019,06,15,10,55,13.70
2019,06,15,10,56,11.50
2019,06,15,10,57,11.40
2019,06,15,10,58,11.90
2019,06,15,10,59,10.70
2019,06,15,11,00,11.10
2019,06,15,11,01,12.70
2019,06,15,11,02,9.00
2019,06,15,11,03,10.50
2019,06,15,11,04,11.00
2019,06,15,11,05,10.60
2019,06,15,11,06,8.90
2019,06,15,11,07,7.80
2019,06,15,11,08,8.40
2019,06,15,11,09,11.20
2019,06,15,11,10,9.50
2019,06,15,11,11,14.90
2019,06,15,11,12,13.70
2019,06,15,11,13,15.10
2019,06,15,11,14,12.00
2019,06,15,11,15,5.10
2019,06,15,11,16,6.70
2019,06,15,11,17,6.70
2019,06,15,11,18,12.70
2019,06,15,11,19,8.50
2019,06,15,11,20,13.50
2019,06,15,11,21,9.70
2019,06,15,11,22,13.70
2019,06,15,11,23,9.40
2019,06,15,11,24,13.50
2019,06,15,11,25,9.50
2019,06,15,11,26,13.40
2019,06,15,11,27,14.30
2019,06,15,11,28,12.70
2019,06,15,11,29,6.10
2019,06,15,11,30,7.80
2019,06,15,11,31,8.80
2019,06,15,11,32,8.90
2019,06,15,11,33,13.50
2019,06,15,11,34,9.90
2019,06,15,11,35,8.70
2019,06,15,11,36,11.50
2019,06,15,11,37,8.00
2019,06,15,11,38,10.30
2019,06,15,11,39,12.30
2019,06,15,11,40,15.40
2019,06,15,11,41,13.50
2019,06,15,11,42,11.90
2019,06,15,11,43,8.40
2019,06,15,11,44,8.10
2019,06,15,11,45,6.10
2019,06,15,11,46,7.60
2019,06,15,11,47,5.90
2019,06,15,11,48,7.40
2019,06,15,11,49,7.00
2019,06,15,11,50,7.30
2019,06,15,11,51,7.20
2019,06,15,11,52,8.00
2019,06,15,11,53,12.00
2019,06,15,11,54,11.50
2019,06,15,11,55,5.40
2019,06,15,11,56,5.80
2019,06,15,11,57,6.40
2019,06,15,11,58,7.10
2019,06,15,11,59,7.40
2019,06,15,12,00,7.00
2019,06,15,12,01,11.60
2019,06,15,12,02,11.50
2019,06,15,12,03,12.10
2019,06,15,12,04,11.30
2019,06,15,12,05,10.40
2019,06,15,12,06,9.60
2019,06,15,12,07,9.40
2019,06,15,12,08,5.40
2019,06,15,12,09,12.50
2019,06,15,12,10,13.30
2019,06,15,12,11,10.70
2019,06,15,12,12,11.20
2019,06,15,12,13,7.40
2019,06,15,12,14,11.60
2019,06,15,12,15,14.60
2019,06,15,12,16,13.70
2019,06,15,12,17,4.80
2019,06,15,12,18,4.50
2019,06,15,12,19,7.40
2019,06,15,12,20,8.00
2019,06,15,12,21,11.30
2019,06,15,12,22,7.90
2019,06,15,12,23,7.30
2019,06,15,12,24,6.00
2019,06,15,12,25,6.50
2019,06,15,12,26,8.80
2019,06,15,12,27,8.30
2019,06,15,12,28,6.00
2019,06,15,12,29,11.00
2019,06,15,12,30,14.70
2019,06,15,12,31,10.00
2019,06,15,12,32,6.10
2019,06,15,12,33,9.10
2019,06,15,12,34,8.20
2019,06,15,12,35,11.60
2019,06,15,12,36,11.30
2019,06,15,12,37,11.30
2019,06,15,12,38,8.40
2019,06,15,12,39,6.70
2019,06,15,12,40,11.60
2019,06,15,12,41,10.20
2019,06,15,12,42,11.60
2019,06,15,12,43,8.60
2019,06,15,12,44,9.40
2019,06,15,12,45,6.90
2019,06,15,12,46,11.50
2019,06,15,12,47,10.00
2019,06,15,12,48,11.20
2019,06,15,12,49,12.70
2019,06,15,12,50,8.40
2019,06,15,12,51,11.80
2019,06,15,12,52,10.60
2019,06,15,12,53,11.50
2019,06,15,12,54,8.00
2019,06,15,12,55,9.20
2019,06,15,12,56,9.50
2019,06,15,12,57,8.20
2019,06,15,12,58,9.70
2019,06,15,12,59,12.00
2019,06,15,13,00,6.50
2019,06,15,13,01,9.00
2019,06,15,13,02,10.20
2019,06,15,13,03,7.30
2019,06,15,13,04,9.40
2019,06,15,13,05,6.60
2019,06,15,13,06,6.40
2019,06,15,13,07,6.90
2019,06,15,13,08,7.90
2019,06,15,13,09,8.80
2019,06,15,13,10,6.60
2019,06,15,13,11,7.00
2019,06,15,13,12,6.20
2019,06,15,13,13,7.40
2019,06,15,13,14,10.60
2019,06,15,13,15,12.00
2019,06,15,13,16,9.10
2019,06,15,13,17,10.50
2019,06,15,13,18,10.50
2019,06,15,13,19,10.30
2019,06,15,13,20,10.90
2019,06,15,13,21,9.50
2019,06,15,13,22,9.10
2019,06,15,13,23,7.30
2019,06,15,13,24,7.10
2019,06,15,13,25,10.00
2019,06,15,13,26,10.00
2019,06,15,13,27,11.30
2019,06,15,13,28,14.20
2019,06,15,13,29,13.50
2019,06,15,13,30,11.20
2019,06,15,13,31,11.90
2019,06,15,13,32,11.10
2019,06,15,13,33,10.10
2019,06,15,13,34,9.00
2019,06,15,13,35,11.50
2019,06,15,13,36,6.50
2019,06,15,13,37,7.80
2019,06,15,13,38,7.00
2019,06,15,13,39,8.70
2019,06,15,13,40,7.50
2019,06,15,13,41,5.30
2019,06,15,13,42,5.70
2019,06,15,13,43,6.50
2019,06,15,13,44,11.60
2019,06,15,13,45,12.70
2019,06,15,13,46,13.20
2019,06,15,13,47,9.90
2019,06,15,13,48,11.40
2019,06,15,13,49,13.60
2019,06,15,13,50,8.90
2019,06,15,13,51,6.60
2019,06,15,13,52,9.60
2019,06,15,13,53,7.50
2019,06,15,13,54,8.40
2019,06,15,13,55,7.40
2019,06,15,13,56,7.50
2019,06,15,13,57,7.10
2019,06,15,13,58,6.60
2019,06,15,13,59,11.20
2019,06,15,14,00,11.90
2019,06,15,14,01,14.30
2019,06,15,14,02,8.30
2019,06,15,14,03,9.10
2019,06,15,14,04,14.60
2019,06,15,14,05,8.70
2019,06,15,14,06,8.70
2019,06,15,14,07,10.90
2019,06,15,14,08,13.50
2019,06,15,14,09,9.70
2019,06,15,14,10,7.20
2019,06,15,14,11,8.10
2019,06,15,14,12,7.50
2019,06,15,14,13,10.10
2019,06,15,14,14,11.40
2019,06,15,14,15,9.90
2019,06,15,14,16,13.00
2019,06,15,14,17,11.00
2019,06,15,14,18,8.50
2019,06,15,14,19,10.80
2019,06,15,14,20,9.50
2019,06,15,14,21,4.10
2019,06,15,14,22,5.50
2019,06,15,14,23,12.10
2019,06,15,14,24,13.70
2019,06,15,14,25,13.80
2019,06,15,14,26,11.30
2019,06,15,14,27,7.00
2019,06,15,14,28,10.40
2019,06,15,14,29,8.40
2019,06,15,14,30,9.60
2019,06,15,14,31,3.80
2019,06,15,14,32,8.70
2019,06,15,14,33,11.10
2019,06,15,14,34,7.80
2019,06,15,14,35,7.50
2019,06,15,14,36,10.50
2019,06,15,14,37,12.20
2019,06,15,14,38,15.50
2019,06,15,14,39,15.70
2019,06,15,14,40,14.10
2019,06,15,14,41,16.50
2019,06,15,14,42,14.90
2019,06,15,14,43,11.00
2019,06,15,14,44,12.20
2019,06,15,14,45,17.80
2019,06,15,14,46,13.60
2019,06,15,14,47,12.90
2019,06,15,14,48,15.00
2019,06,15,14,49,13.60
2019,06,15,14,50,14.00
2019,06,15,14,51,12.50
2019,06,15,14,52,9.50
2019,06,15,14,53,10.50
2019,06,15,14,54,11.70
2019,06,15,14,55,13.60
2019,06,15,14,56,13.80
2019,06,15,14,57,12.60
2019,06,15,14,58,9.90
2019,06,15,14,59,13.30
2019,06,15,15,00,10.20
2019,06,15,15,01,8.70
2019,06,15,15,02,14.80
2019,06,15,15,03,13.60
2019,06,15,15,04,10.30
2019,06,15,15,05,9.30
2019,06,15,15,06,12.70
2019,06,15,15,07,13.80
2019,06,15,15,08,13.20
2019,06,15,15,09,10.70
2019,06,15,15,10,11.30
2019,06,15,15,11,11.70
2019,06,15,15,12,12.60
2019,06,15,15,13,9.20
2019,06,15,15,14,10.40
2019,06,15,15,15,14.70
2019,06,15,15,16,14.80
2019,06,15,15,17,12.10
2019,06,15,15,18,11.40
2019,06,15,15,19,19.00
2019,06,15,15,20,14.60
2019,06,15,15,21,11.80
2019,06,15,15,22,10.10
2019,06,15,15,23,12.10
2019,06,15,15,24,14.20
2019,06,15,15,25,11.40
2019,06,15,15,26,13.60
2019,06,15,15,27,16.80
2019,06,15,15,28,12.30
2019,06,15,15,29,13.20
2019,06,15,15,30,14.30
2019,06,15,15,31,16.00
2019,06,15,15,32,11.10
2019,06,15,15,33,12.00
2019,06,15,15,34,12.70
2019,06,15,15,35,11.40
2019,06,15,15,36,14.30
2019,06,15,15,37,8.00
2019,06,15,15,38,8.30
2019,06,15,15,39,14.60
2019,06,15,15,40,12.60
2019,06,15,15,41,13.50
2019,06,15,15,42,12.10
2019,06,15,15,43,8.20
2019,06,15,15,44,9.20
2019,06,15,15,45,14.60
2019,06,15,15,46,10.00
2019,06,15,15,47,15.70
2019,06,15,15,48,12.60
2019,06,15,15,49,9.40
2019,06,15,15,50,9.10
2019,06,15,15,51,17.30
2019,06,15,15,52,10.70
2019,06,15,15,53,13.70
2019,06,15,15,54,10.30
2019,06,15,15,55,9.30
2019,06,15,15,56,15.70
2019,06,15,15,57,14.80
2019,06,15,15,58,8.10
2019,06,15,15,59,9.40
2019,06,15,16,00,13.60
2019,06,15,16,01,8.30
2019,06,15,16,02,9.90
2019,06,15,16,03,6.70
2019,06,15,16,04,13.20
2019,06,15,16,05,10.60
2019,06,15,16,06,8.40
2019,06,15,16,07,11.60
2019,06,15,16,08,9.10
2019,06,15,16,09,9.30
2019,06,15,16,10,9.90
2019,06,15,16,11,11.50
2019,06,15,16,12,13.70
2019,06,15,16,13,14.10
2019,06,15,16,14,12.70
2019,06,15,16,15,14.30
2019,06,15,16,16,13.30
2019,06,15,16,17,12.00
2019,06,15,16,18,14.10
2019,06,15,16,19,16.30
2019,06,15,16,20,11.30
2019,06,15,16,21,9.40
2019,06,15,16,22,12.10
2019,06,15,16,23,11.40
2019,06,15,16,24,14.20
2019,06,15,16,25,11.90
2019,06,15,16,26,10.10
2019,06,15,16,27,12.40
2019,06,15,16,28,12.20
2019,06,15,16,29,9.60
2019,06,15,16,30,11.20
2019,06,15,16,31,12.80
2019,06,15,16,32,13.00
2019,06,15,16,33,18.30
2019,06,15,16,34,15.10
2019,06,15,16,35,15.10
2019,06,15,16,36,13.90
2019,06,15,16,37,14.80
2019,06,15,16,38,10.10
2019,06,15,16,39,13.00
2019,06,15,16,40,16.90
2019,06,15,16,41,13.30
2019,06,15,16,42,16.40
2019,06,15,16,43,13.40
2019,06,15,16,44,13.20
2019,06,15,16,45,9.70
2019,06,15,16,46,14.80
2019,06,15,16,47,13.00
2019,06,15,16,48,17.60
2019,06,15,16,49,15.60
2019,06,15,16,50,15.10
2019,06,15,16,51,11.90
2019,06,15,16,52,17.80
2019,06,15,16,53,10.40
2019,06,15,16,54,12.40
2019,06,15,16,55,13.00
2019,06,15,16,56,15.70
2019,06,15,16,57,11.30
2019,06,15,16,58,22.60
2019,06,15,16,59,17.30
2019,06,15,17,00,18.20
2019,06,15,17,01,12.90
2019,06,15,17,02,19.90
2019,06,15,17,03,23.20
2019,06,15,17,04,17.50
2019,06,15,17,05,11.50
2019,06,15,17,06,21.10
2019,06,15,17,07,16.80
2019,06,15,17,08,21.60
2019,06,15,17,09,18.50
2019,06,15,17,10,14.70
2019,06,15,17,11,15.50
2019,06,15,17,12,15.10
2019,06,15,17,13,19.20
2019,06,15,17,14,19.50
2019,06,15,17,15,18.20
2019,06,15,17,16,16.30
2019,06,15,17,17,18.50
2019,06,15,17,18,12.30
2019,06,15,17,19,14.80
2019,06,15,17,20,13.40
2019,06,15,17,21,15.90
2019,06,15,17,22,14.80
2019,06,15,17,23,9.40
2019,06,15,17,24,15.10
2019,06,15,17,25,11.90
2019,06,15,17,26,12.50
2019,06,15,17,27,16.30
2019,06,15,17,28,16.40
2019,06,15,17,29,14.00
2019,06,15,17,30,10.90
2019,06,15,17,31,16.00
2019,06,15,17,32,18.30
2019,06,15,17,33,17.10
2019,06,15,17,34,14.30
2019,06,15,17,35,10.30
2019,06,15,17,36,15.00
2019,06,15,17,37,12.70
2019,06,15,17,38,11.90
2019,06,15,17,39,14.30
2019,06,15,17,40,8.90
2019,06,15,17,41,12.50
2019,06,15,17,42,12.00
2019,06,15,17,43,11.70
2019,06,15,17,44,13.70
2019,06,15,17,45,11.90
2019,06,15,17,46,12.70
2019,06,15,17,47,16.30
2019,06,15,17,48,12.70
2019,06,15,17,49,12.10
2019,06,15,17,50,9.40
2019,06,15,17,51,16.20
2019,06,15,17,52,12.40